| Date | Time | Temp. (oF) | Dew Point (oF) | Rel. Hum. (%) | Press. (in.) | Wind Dir. | Wind Speed (mph) | Hourly Rainfall (in.) |
|
|---|---|---|---|---|---|---|---|---|---|
| 1 | 10/10 | 00:00 | 57 | 55 | 96 | 30.05 | N | 3 | 0.00 |
| 2 | 10/09 | 23:00 | 57 | 55 | 96 | 30.05 | N | 3 | 0.00 |
| 3 | 10/09 | 22:00 | 58 | 56 | 96 | 30.04 | N | 3 | 0.00 |
| 4 | 10/09 | 21:00 | 58 | 56 | 96 | 30.03 | NNW | 1 | 0.00 |
| 5 | 10/09 | 20:00 | 58 | 56 | 96 | 30.02 | NNW | 1 | 0.00 |
| 6 | 10/09 | 19:00 | 58 | 56 | 95 | 30.01 | NE | 2 | 0.00 |
| 7 | 10/09 | 18:00 | 58 | 56 | 95 | 29.99 | N | 5 | 0.00 |
| 8 | 10/09 | 17:00 | 58 | 56 | 95 | 29.98 | N | 2 | 0.00 |
| 9 | 10/09 | 16:00 | 58 | 56 | 95 | 29.96 | NW | 1 | 0.00 |
| 10 | 10/09 | 15:00 | 58 | 56 | 94 | 29.96 | NNW | 3 | 0.00 |
| 11 | 10/09 | 14:00 | 58 | 56 | 96 | 29.95 | NW | 4 | 0.00 |
| 12 | 10/09 | 13:00 | 57 | 57 | 100 | 29.97 | NW | 3 | 0.00 |
| 13 | 10/09 | 12:00 | 55 | 54 | 100 | 29.97 | NNW | 8 | 0.00 |
| 14 | 10/09 | 11:00 | 53 | 53 | 100 | 29.97 | NW | 4 | 0.00 |
| 15 | 10/09 | 10:00 | 52 | 51 | 100 | 29.95 | WNW | 7 | 0.00 |
| 16 | 10/09 | 09:00 | 51 | 50 | 100 | 29.93 | NW | 5 | 0.00 |
| 17 | 10/09 | 08:00 | 51 | 50 | 100 | 29.91 | NW | 5 | 0.00 |
| 18 | 10/09 | 07:00 | 51 | 50 | 100 | 29.90 | WNW | 2 | 0.00 |
| 19 | 10/09 | 06:00 | 51 | 50 | 100 | 29.88 | NNW | 3 | 0.00 |
| 20 | 10/09 | 05:00 | 51 | 50 | 100 | 29.86 | WNW | 7 | 0.01 |
| 21 | 10/09 | 04:00 | 52 | 51 | 100 | 29.84 | NW | 2 | 0.00 |
| 22 | 10/09 | 03:00 | 52 | 51 | 100 | 29.84 | W | 6 | 0.03 |
| 23 | 10/09 | 02:00 | 52 | 51 | 100 | 29.82 | WNW | 6 | 0.03 |
| 24 | 10/09 | 01:00 | 52 | 51 | 100 | 29.81 | WNW | 2 | 0.01 |